Time,TemperatureF,DewpointF,PressureIn,WindDirection,WindDirectionDegrees,WindSpeedMPH,WindSpeedGustMPH,Humidity,HourlyPrecipIn,Conditions,Clouds,dailyrainin,SoftwareType,DateUTC
2013-04-26 00:01:00,51.8,37.9,30.22,West,270,0.0,0.7,59,0.00,,,0.00,WUHU216HW,2013-04-26 04:01:00,
2013-04-26 00:06:00,51.7,38.2,30.22,SSW,203,0.7,0.7,60,0.00,,,0.00,WUHU216HW,2013-04-26 04:06:00,
2013-04-26 00:11:00,51.7,37.7,30.22,SSW,203,0.0,0.7,59,0.00,,,0.00,WUHU216HW,2013-04-26 04:11:00,
2013-04-26 00:16:00,51.7,37.7,30.23,SSW,203,0.0,0.7,59,0.00,,,0.00,WUHU216HW,2013-04-26 04:16:00,
2013-04-26 00:21:00,51.5,37.5,30.22,SW,225,0.0,1.8,59,0.00,,,0.00,WUHU216HW,2013-04-26 04:21:00,
2013-04-26 00:26:00,51.5,38.0,30.22,NW,315,0.4,1.8,60,0.00,,,0.00,WUHU216HW,2013-04-26 04:26:00,
2013-04-26 00:31:00,51.5,38.0,30.22,SSW,203,0.4,1.8,60,0.00,,,0.00,WUHU216HW,2013-04-26 04:31:00,
2013-04-26 00:36:00,51.3,37.9,30.22,SW,225,0.0,1.8,60,0.00,,,0.00,WUHU216HW,2013-04-26 04:36:00,
2013-04-26 00:41:00,51.1,37.7,30.22,WSW,248,0.0,0.7,60,0.00,,,0.00,WUHU216HW,2013-04-26 04:41:00,
2013-04-26 00:46:00,51.1,37.7,30.23,WSW,248,0.0,0.2,60,0.00,,,0.00,WUHU216HW,2013-04-26 04:46:00,
2013-04-26 00:51:00,51.1,37.7,30.23,SW,225,0.2,0.4,60,0.00,,,0.00,WUHU216HW,2013-04-26 04:51:00,
2013-04-26 00:56:00,51.1,38.1,30.22,SW,225,0.0,2.5,61,0.00,,,0.00,WUHU216HW,2013-04-26 04:56:00,
2013-04-26 01:01:00,50.9,38.0,30.22,SW,225,0.0,2.5,61,0.00,,,0.00,WUHU216HW,2013-04-26 05:01:00,
2013-04-26 01:06:00,50.9,38.0,30.22,West,270,0.2,0.9,61,0.00,,,0.00,WUHU216HW,2013-04-26 05:06:00,
2013-04-26 01:11:00,50.9,38.0,30.22,SW,225,0.0,0.2,61,0.00,,,0.00,WUHU216HW,2013-04-26 05:11:00,
2013-04-26 01:16:00,50.9,38.3,30.22,WSW,248,0.0,0.2,62,0.00,,,0.00,WUHU216HW,2013-04-26 05:16:00,
2013-04-26 01:21:00,50.9,38.3,30.22,West,270,0.0,0.2,62,0.00,,,0.00,WUHU216HW,2013-04-26 05:21:00,
2013-04-26 01:26:00,50.8,38.2,30.22,West,270,0.0,0.2,62,0.00,,,0.00,WUHU216HW,2013-04-26 05:26:00,
2013-04-26 01:31:00,50.8,38.2,30.22,SW,225,0.0,0.4,62,0.00,,,0.00,WUHU216HW,2013-04-26 05:31:00,
2013-04-26 01:36:00,50.8,38.6,30.22,SW,225,0.0,0.4,63,0.00,,,0.00,WUHU216HW,2013-04-26 05:36:00,
2013-04-26 01:41:00,50.8,38.6,30.22,SW,225,0.0,0.0,63,0.00,,,0.00,WUHU216HW,2013-04-26 05:41:00,
2013-04-26 01:46:00,50.6,38.4,30.22,SW,225,0.0,0.0,63,0.00,,,0.00,WUHU216HW,2013-04-26 05:46:00,
2013-04-26 01:51:00,50.6,38.4,30.22,SW,225,0.0,0.0,63,0.00,,,0.00,WUHU216HW,2013-04-26 05:51:00,
2013-04-26 01:56:00,50.4,38.6,30.22,SW,225,0.0,0.0,64,0.00,,,0.00,WUHU216HW,2013-04-26 05:56:00,
2013-04-26 02:01:00,50.4,38.6,30.22,SW,225,0.0,0.0,64,0.00,,,0.00,WUHU216HW,2013-04-26 06:01:00,
2013-04-26 02:06:00,50.2,38.4,30.22,SW,225,0.0,0.0,64,0.00,,,0.00,WUHU216HW,2013-04-26 06:06:00,
2013-04-26 02:11:00,50.2,38.4,30.22,SSW,203,0.0,0.0,64,0.00,,,0.00,WUHU216HW,2013-04-26 06:11:00,
2013-04-26 02:16:00,50.0,38.4,30.22,South,180,0.0,0.0,64,0.00,,,0.00,WUHU216HW,2013-04-26 06:16:00,
2013-04-26 02:21:00,50.0,38.4,30.23,South,180,0.0,0.0,64,0.00,,,0.00,WUHU216HW,2013-04-26 06:21:00,
2013-04-26 02:26:00,49.9,38.2,30.23,South,180,0.0,0.0,64,0.00,,,0.00,WUHU216HW,2013-04-26 06:26:00,
2013-04-26 02:31:00,49.7,38.0,30.23,South,180,0.0,0.0,64,0.00,,,0.00,WUHU216HW,2013-04-26 06:31:00,
2013-04-26 02:36:00,49.3,38.0,30.23,South,180,0.0,0.0,65,0.00,,,0.00,WUHU216HW,2013-04-26 06:36:00,
2013-04-26 02:41:00,49.3,38.0,30.23,South,180,0.0,0.0,65,0.00,,,0.00,WUHU216HW,2013-04-26 06:41:00,
2013-04-26 02:46:00,49.3,38.0,30.23,South,180,0.0,0.0,65,0.00,,,0.00,WUHU216HW,2013-04-26 06:46:00,
2013-04-26 02:51:00,49.0,37.7,30.23,South,180,0.0,0.0,65,0.00,,,0.00,WUHU216HW,2013-04-26 06:51:00,
2013-04-26 02:56:00,48.8,37.9,30.23,South,180,0.0,0.0,66,0.00,,,0.00,WUHU216HW,2013-04-26 06:56:00,
2013-04-26 03:01:00,48.8,37.9,30.23,South,180,0.0,0.0,66,0.00,,,0.00,WUHU216HW,2013-04-26 07:01:00,
2013-04-26 03:06:00,48.6,37.7,30.24,South,180,0.0,0.0,66,0.00,,,0.00,WUHU216HW,2013-04-26 07:06:00,
2013-04-26 03:11:00,48.4,37.5,30.23,South,180,0.0,0.0,66,0.00,,,0.00,WUHU216HW,2013-04-26 07:11:00,
2013-04-26 03:16:00,48.2,37.7,30.24,South,180,0.0,0.0,67,0.00,,,0.00,WUHU216HW,2013-04-26 07:16:00,
2013-04-26 03:21:00,48.2,37.7,30.24,South,180,0.0,0.0,67,0.00,,,0.00,WUHU216HW,2013-04-26 07:21:00,
2013-04-26 03:26:00,48.1,37.6,30.24,South,180,0.0,0.0,67,0.00,,,0.00,WUHU216HW,2013-04-26 07:26:00,
2013-04-26 03:31:00,47.9,37.5,30.24,South,180,0.0,0.0,67,0.00,,,0.00,WUHU216HW,2013-04-26 07:31:00,
2013-04-26 03:36:00,47.9,37.8,30.24,South,180,0.0,0.0,68,0.00,,,0.00,WUHU216HW,2013-04-26 07:36:00,
2013-04-26 03:41:00,47.5,37.4,30.24,South,180,0.0,0.0,68,0.00,,,0.00,WUHU216HW,2013-04-26 07:41:00,
2013-04-26 03:46:00,47.5,37.4,30.24,South,180,0.0,0.0,68,0.00,,,0.00,WUHU216HW,2013-04-26 07:46:00,
2013-04-26 03:51:00,47.2,37.2,30.24,South,180,0.0,0.0,68,0.00,,,0.00,WUHU216HW,2013-04-26 07:51:00,
2013-04-26 03:56:00,47.2,37.2,30.24,South,180,0.0,0.0,68,0.00,,,0.00,WUHU216HW,2013-04-26 07:56:00,
2013-04-26 04:01:00,47.2,37.2,30.24,South,180,0.0,0.0,68,0.00,,,0.00,WUHU216HW,2013-04-26 08:01:00,
2013-04-26 04:06:00,47.0,37.4,30.24,South,180,0.0,0.0,69,0.00,,,0.00,WUHU216HW,2013-04-26 08:06:00,
2013-04-26 04:11:00,46.8,37.2,30.24,South,180,0.0,0.0,69,0.00,,,0.00,WUHU216HW,2013-04-26 08:11:00,
2013-04-26 04:16:00,46.8,37.2,30.24,South,180,0.0,0.0,69,0.00,,,0.00,WUHU216HW,2013-04-26 08:16:00,
2013-04-26 04:21:00,46.6,37.0,30.25,South,180,0.0,0.0,69,0.00,,,0.00,WUHU216HW,2013-04-26 08:21:00,
2013-04-26 04:26:00,46.4,37.3,30.25,SSE,158,0.0,0.0,70,0.00,,,0.00,WUHU216HW,2013-04-26 08:26:00,
2013-04-26 04:31:00,46.4,37.3,30.25,SSE,158,0.0,0.0,70,0.00,,,0.00,WUHU216HW,2013-04-26 08:31:00,
2013-04-26 04:36:00,46.3,37.1,30.25,SSE,158,0.0,0.0,70,0.00,,,0.00,WUHU216HW,2013-04-26 08:36:00,
2013-04-26 04:41:00,46.3,37.1,30.25,SSE,158,0.0,0.0,70,0.00,,,0.00,WUHU216HW,2013-04-26 08:41:00,
2013-04-26 04:46:00,46.1,37.3,30.25,SSE,158,0.0,0.0,71,0.00,,,0.00,WUHU216HW,2013-04-26 08:46:00,
2013-04-26 04:51:00,46.1,37.3,30.25,SSE,158,0.0,0.0,71,0.00,,,0.00,WUHU216HW,2013-04-26 08:51:00,
2013-04-26 04:56:00,45.9,37.1,30.26,SSE,158,0.0,0.0,71,0.00,,,0.00,WUHU216HW,2013-04-26 08:56:00,
2013-04-26 05:01:00,45.7,37.3,30.26,SSE,158,0.0,0.0,72,0.00,,,0.00,WUHU216HW,2013-04-26 09:01:00,
2013-04-26 05:06:00,45.5,37.1,30.26,South,180,0.0,0.0,72,0.00,,,0.00,WUHU216HW,2013-04-26 09:06:00,
2013-04-26 05:11:00,45.5,37.1,30.26,South,180,0.0,0.0,72,0.00,,,0.00,WUHU216HW,2013-04-26 09:11:00,
2013-04-26 05:16:00,45.4,36.9,30.26,South,180,0.0,0.0,72,0.00,,,0.00,WUHU216HW,2013-04-26 09:16:00,
2013-04-26 05:21:00,45.2,36.7,30.26,ENE,68,0.4,1.1,72,0.00,,,0.00,WUHU216HW,2013-04-26 09:21:00,
2013-04-26 05:26:00,45.2,37.0,30.26,ENE,68,0.0,1.1,73,0.00,,,0.00,WUHU216HW,2013-04-26 09:26:00,
2013-04-26 05:31:00,45.2,37.0,30.26,NE,45,0.0,0.4,73,0.00,,,0.00,WUHU216HW,2013-04-26 09:31:00,
2013-04-26 05:36:00,45.2,37.0,30.26,ESE,113,0.0,0.2,73,0.00,,,0.00,WUHU216HW,2013-04-26 09:36:00,
2013-04-26 05:41:00,45.2,37.0,30.27,East,90,0.0,0.2,73,0.00,,,0.00,WUHU216HW,2013-04-26 09:41:00,
2013-04-26 05:46:00,45.0,37.2,30.27,East,90,0.0,0.0,74,0.00,,,0.00,WUHU216HW,2013-04-26 09:46:00,
2013-04-26 05:51:00,45.0,37.2,30.27,East,90,0.0,0.0,74,0.00,,,0.00,WUHU216HW,2013-04-26 09:51:00,
2013-04-26 05:56:00,45.0,37.2,30.27,East,90,0.0,0.0,74,0.00,,,0.00,WUHU216HW,2013-04-26 09:56:00,
2013-04-26 06:01:00,45.0,37.2,30.28,East,90,0.0,0.0,74,0.00,,,0.00,WUHU216HW,2013-04-26 10:01:00,
2013-04-26 06:06:00,45.0,37.2,30.28,East,90,0.0,0.0,74,0.00,,,0.00,WUHU216HW,2013-04-26 10:06:00,
2013-04-26 06:11:00,44.8,37.0,30.28,East,90,0.0,0.0,74,0.00,,,0.00,WUHU216HW,2013-04-26 10:11:00,
2013-04-26 06:16:00,44.8,37.0,30.28,East,90,0.0,0.0,74,0.00,,,0.00,WUHU216HW,2013-04-26 10:16:00,
2013-04-26 06:21:00,44.8,37.0,30.28,East,90,0.0,0.0,74,0.00,,,0.00,WUHU216HW,2013-04-26 10:21:00,
2013-04-26 06:26:00,44.8,37.0,30.28,East,90,0.0,0.0,74,0.00,,,0.00,WUHU216HW,2013-04-26 10:26:00,
2013-04-26 06:31:00,44.8,37.0,30.29,East,90,0.0,0.0,74,0.00,,,0.00,WUHU216HW,2013-04-26 10:31:00,
2013-04-26 06:36:00,45.0,37.2,30.29,East,90,0.0,0.0,74,0.00,,,0.00,WUHU216HW,2013-04-26 10:36:00,
2013-04-26 06:41:00,45.0,37.2,30.29,East,90,0.0,0.0,74,0.00,,,0.00,WUHU216HW,2013-04-26 10:41:00,
2013-04-26 06:46:00,45.0,37.2,30.29,East,90,0.0,0.0,74,0.00,,,0.00,WUHU216HW,2013-04-26 10:46:00,
2013-04-26 06:51:00,45.0,37.2,30.29,East,90,0.0,0.0,74,0.00,,,0.00,WUHU216HW,2013-04-26 10:51:00,
2013-04-26 06:56:00,45.2,37.7,30.30,East,90,0.0,0.0,75,0.00,,,0.00,WUHU216HW,2013-04-26 10:56:00,
2013-04-26 07:01:00,45.4,37.9,30.30,East,90,0.0,0.0,75,0.00,,,0.00,WUHU216HW,2013-04-26 11:01:00,
2013-04-26 07:06:00,45.7,38.6,30.30,East,90,0.0,0.0,76,0.00,,,0.00,WUHU216HW,2013-04-26 11:06:00,
2013-04-26 07:11:00,46.1,39.0,30.30,East,90,0.0,0.0,76,0.00,,,0.00,WUHU216HW,2013-04-26 11:11:00,
2013-04-26 07:16:00,46.4,39.3,30.30,West,270,0.2,0.2,76,0.00,,,0.00,WUHU216HW,2013-04-26 11:16:00,
2013-04-26 07:21:00,47.9,41.0,30.31,WSW,248,0.2,0.2,77,0.00,,,0.00,WUHU216HW,2013-04-26 11:21:00,
2013-04-26 07:26:00,49.7,42.0,30.31,West,270,0.2,0.9,75,0.00,,,0.00,WUHU216HW,2013-04-26 11:26:00,
2013-04-26 07:31:00,51.1,42.5,30.31,WNW,293,0.0,0.9,72,0.00,,,0.00,WUHU216HW,2013-04-26 11:31:00,
2013-04-26 07:36:00,52.0,42.7,30.31,North,0,0.0,0.9,70,0.00,,,0.00,WUHU216HW,2013-04-26 11:36:00,
2013-04-26 07:41:00,52.6,42.3,30.31,NW,315,0.2,0.9,68,0.00,,,0.00,WUHU216HW,2013-04-26 11:41:00,
2013-04-26 07:46:00,53.3,41.4,30.31,NNW,338,1.3,2.2,64,0.00,,,0.00,WUHU216HW,2013-04-26 11:46:00,
2013-04-26 07:51:00,53.8,41.5,30.31,NNW,338,0.2,2.5,63,0.00,,,0.00,WUHU216HW,2013-04-26 11:51:00,
2013-04-26 07:56:00,54.4,41.2,30.31,NNW,338,1.1,2.5,61,0.00,,,0.00,WUHU216HW,2013-04-26 11:56:00,
2013-04-26 08:01:00,55.1,40.5,30.32,NNE,23,2.5,4.0,58,0.00,,,0.00,WUHU216HW,2013-04-26 12:01:00,
2013-04-26 08:06:00,55.4,39.4,30.31,NNW,338,1.8,4.0,55,0.00,,,0.00,WUHU216HW,2013-04-26 12:06:00,
2013-04-26 08:11:00,55.4,38.5,30.31,NE,45,0.2,2.9,53,0.00,,,0.00,WUHU216HW,2013-04-26 12:11:00,
2013-04-26 08:16:00,55.8,38.9,30.31,NW,315,0.2,2.9,53,0.00,,,0.00,WUHU216HW,2013-04-26 12:16:00,
2013-04-26 08:21:00,56.5,40.1,30.31,North,0,1.8,3.4,54,0.00,,,0.00,WUHU216HW,2013-04-26 12:21:00,
2013-04-26 08:26:00,58.0,41.0,30.32,NW,315,1.1,3.4,53,0.00,,,0.00,WUHU216HW,2013-04-26 12:26:00,
2013-04-26 08:31:00,58.7,39.6,30.32,North,0,1.8,3.1,49,0.00,,,0.00,WUHU216HW,2013-04-26 12:31:00,
2013-04-26 08:36:00,59.2,39.0,30.32,North,0,1.6,6.0,47,0.00,,,0.00,WUHU216HW,2013-04-26 12:36:00,
2013-04-26 08:41:00,59.8,37.7,30.32,WSW,248,3.4,6.0,44,0.00,,,0.00,WUHU216HW,2013-04-26 12:41:00,
2013-04-26 08:46:00,59.4,37.4,30.33,North,0,1.8,5.1,44,0.00,,,0.00,WUHU216HW,2013-04-26 12:46:00,
2013-04-26 08:51:00,59.2,36.6,30.33,North,0,1.8,4.9,43,0.00,,,0.00,WUHU216HW,2013-04-26 12:51:00,
2013-04-26 08:56:00,59.0,37.1,30.33,NE,45,0.9,4.0,44,0.00,,,0.00,WUHU216HW,2013-04-26 12:56:00,
2013-04-26 09:01:00,59.0,36.5,30.33,North,0,4.0,6.0,43,0.00,,,0.00,WUHU216HW,2013-04-26 13:01:00,
2013-04-26 09:06:00,59.4,36.2,30.33,North,0,2.5,8.1,42,0.00,,,0.00,WUHU216HW,2013-04-26 13:06:00,
2013-04-26 09:11:00,60.3,38.8,30.33,NNW,338,0.7,8.1,45,0.00,,,0.00,WUHU216HW,2013-04-26 13:11:00,
2013-04-26 09:16:00,61.6,38.7,30.33,WNW,293,2.0,3.8,43,0.00,,,0.00,WUHU216HW,2013-04-26 13:16:00,
2013-04-26 09:21:00,62.3,38.3,30.33,NW,315,2.7,6.0,41,0.00,,,0.00,WUHU216HW,2013-04-26 13:21:00,
2013-04-26 09:26:00,62.3,37.6,30.33,NE,45,3.8,6.0,40,0.00,,,0.00,WUHU216HW,2013-04-26 13:26:00,
2013-04-26 09:31:00,62.3,38.3,30.33,NW,315,2.0,4.9,41,0.00,,,0.00,WUHU216HW,2013-04-26 13:31:00,
2013-04-26 09:36:00,62.8,38.7,30.33,NW,315,0.2,4.9,41,0.00,,,0.00,WUHU216HW,2013-04-26 13:36:00,
2013-04-26 09:41:00,63.2,38.4,30.33,NNW,338,5.4,5.4,40,0.00,,,0.00,WUHU216HW,2013-04-26 13:41:00,
2013-04-26 09:46:00,63.4,37.9,30.33,NNW,338,2.5,5.4,39,0.00,,,0.00,WUHU216HW,2013-04-26 13:46:00,
2013-04-26 09:51:00,63.2,38.4,30.33,WNW,293,2.9,5.4,40,0.00,,,0.00,WUHU216HW,2013-04-26 13:51:00,
2013-04-26 09:56:00,63.0,38.4,30.33,WNW,293,2.2,4.7,40,0.00,,,0.00,WUHU216HW,2013-04-26 13:56:00,
2013-04-26 10:01:00,63.2,39.1,30.33,WNW,293,2.5,4.7,41,0.00,,,0.00,WUHU216HW,2013-04-26 14:01:00,
2013-04-26 10:06:00,63.4,38.6,30.33,NW,315,2.7,3.8,40,0.00,,,0.00,WUHU216HW,2013-04-26 14:06:00,
2013-04-26 10:11:00,63.2,38.4,30.33,South,180,1.8,4.0,40,0.00,,,0.00,WUHU216HW,2013-04-26 14:11:00,
2013-04-26 10:16:00,63.4,38.6,30.33,West,270,1.8,4.0,40,0.00,,,0.00,WUHU216HW,2013-04-26 14:16:00,
2013-04-26 10:21:00,63.5,38.8,30.33,WNW,293,1.1,3.6,40,0.00,,,0.00,WUHU216HW,2013-04-26 14:21:00,
2013-04-26 10:26:00,63.4,38.6,30.34,NW,315,1.1,4.7,40,0.00,,,0.00,WUHU216HW,2013-04-26 14:26:00,
2013-04-26 10:31:00,63.4,37.9,30.34,NW,315,2.9,4.7,39,0.00,,,0.00,WUHU216HW,2013-04-26 14:31:00,
2013-04-26 10:36:00,63.5,38.1,30.34,NNE,23,1.6,4.7,39,0.00,,,0.00,WUHU216HW,2013-04-26 14:36:00,
2013-04-26 10:41:00,63.7,39.0,30.34,NW,315,1.1,5.6,40,0.00,,,0.00,WUHU216HW,2013-04-26 14:41:00,
2013-04-26 10:46:00,63.7,39.0,30.34,WNW,293,3.6,5.6,40,0.00,,,0.00,WUHU216HW,2013-04-26 14:46:00,
2013-04-26 10:51:00,64.1,38.5,30.34,North,0,2.5,4.7,39,0.00,,,0.00,WUHU216HW,2013-04-26 14:51:00,
2013-04-26 10:56:00,64.1,38.5,30.34,NNW,338,2.2,4.0,39,0.00,,,0.00,WUHU216HW,2013-04-26 14:56:00,
2013-04-26 11:01:00,64.1,38.5,30.34,NNW,338,2.5,4.7,39,0.00,,,0.00,WUHU216HW,2013-04-26 15:01:00,
2013-04-26 11:06:00,64.4,38.9,30.34,North,0,0.4,4.7,39,0.00,,,0.00,WUHU216HW,2013-04-26 15:06:00,
2013-04-26 11:11:00,64.8,38.5,30.34,SSW,203,1.1,3.4,38,0.00,,,0.00,WUHU216HW,2013-04-26 15:11:00,
2013-04-26 11:16:00,65.0,38.6,30.34,NNW,338,3.8,4.9,38,0.00,,,0.00,WUHU216HW,2013-04-26 15:16:00,
2013-04-26 11:21:00,65.0,38.6,30.34,SW,225,1.6,5.4,38,0.00,,,0.00,WUHU216HW,2013-04-26 15:21:00,
2013-04-26 11:26:00,65.3,38.3,30.34,NE,45,1.1,5.4,37,0.00,,,0.00,WUHU216HW,2013-04-26 15:26:00,
2013-04-26 11:31:00,65.5,37.7,30.34,NW,315,1.1,3.6,36,0.00,,,0.00,WUHU216HW,2013-04-26 15:31:00,
2013-04-26 11:36:00,65.9,38.7,30.34,North,0,2.2,3.4,37,0.00,,,0.00,WUHU216HW,2013-04-26 15:36:00,
2013-04-26 11:41:00,66.1,37.4,30.33,NW,315,1.3,5.8,35,0.00,,,0.00,WUHU216HW,2013-04-26 15:41:00,
2013-04-26 11:46:00,66.1,38.2,30.34,WSW,248,1.8,5.8,36,0.00,,,0.00,WUHU216HW,2013-04-26 15:46:00,
2013-04-26 11:51:00,66.4,39.3,30.34,West,270,1.1,2.9,37,0.00,,,0.00,WUHU216HW,2013-04-26 15:51:00,
2013-04-26 11:56:00,67.0,39.0,30.33,SSW,203,0.9,2.9,36,0.00,,,0.00,WUHU216HW,2013-04-26 15:56:00,
2013-04-26 12:01:00,67.1,39.2,30.33,NNE,23,0.9,2.9,36,0.00,,,0.00,WUHU216HW,2013-04-26 16:01:00,
2013-04-26 12:06:00,67.0,38.3,30.33,WNW,293,2.7,2.7,35,0.00,,,0.00,WUHU216HW,2013-04-26 16:06:00,
2013-04-26 12:11:00,67.3,38.5,30.33,SW,225,2.5,2.7,35,0.00,,,0.00,WUHU216HW,2013-04-26 16:11:00,
2013-04-26 12:16:00,67.5,40.1,30.32,NNW,338,0.9,4.7,37,0.00,,,0.00,WUHU216HW,2013-04-26 16:16:00,
2013-04-26 12:21:00,67.9,39.7,30.32,NW,315,1.8,4.7,36,0.00,,,0.00,WUHU216HW,2013-04-26 16:21:00,
2013-04-26 12:26:00,67.9,38.3,30.32,West,270,0.7,4.7,34,0.00,,,0.00,WUHU216HW,2013-04-26 16:26:00,
2013-04-26 12:31:00,68.0,37.7,30.32,West,270,0.4,4.7,33,0.00,,,0.00,WUHU216HW,2013-04-26 16:31:00,
2013-04-26 12:36:00,68.0,39.2,30.32,WNW,293,0.7,2.5,35,0.00,,,0.00,WUHU216HW,2013-04-26 16:36:00,
2013-04-26 12:41:00,67.5,37.3,30.32,NNW,338,1.1,6.3,33,0.00,,,0.00,WUHU216HW,2013-04-26 16:41:00,
2013-04-26 12:46:00,67.7,38.1,30.32,WSW,248,2.5,6.3,34,0.00,,,0.00,WUHU216HW,2013-04-26 16:46:00,
2013-04-26 12:51:00,68.2,38.6,30.32,ESE,113,2.7,5.8,34,0.00,,,0.00,WUHU216HW,2013-04-26 16:51:00,
2013-04-26 12:56:00,68.8,39.1,30.31,NNW,338,2.5,6.0,34,0.00,,,0.00,WUHU216HW,2013-04-26 16:56:00,
2013-04-26 13:01:00,68.8,37.6,30.31,NW,315,4.5,6.0,32,0.00,,,0.00,WUHU216HW,2013-04-26 17:01:00,
2013-04-26 13:06:00,68.8,38.4,30.31,WSW,248,2.5,5.4,33,0.00,,,0.00,WUHU216HW,2013-04-26 17:06:00,
2013-04-26 13:11:00,68.9,38.5,30.31,WSW,248,1.6,5.4,33,0.00,,,0.00,WUHU216HW,2013-04-26 17:11:00,
2013-04-26 13:16:00,69.3,38.1,30.31,West,270,1.1,4.7,32,0.00,,,0.00,WUHU216HW,2013-04-26 17:16:00,
2013-04-26 13:21:00,69.1,38.6,30.30,North,0,1.6,3.8,33,0.00,,,0.00,WUHU216HW,2013-04-26 17:21:00,
2013-04-26 13:26:00,69.1,37.9,30.30,NNW,338,2.0,3.4,32,0.00,,,0.00,WUHU216HW,2013-04-26 17:26:00,
2013-04-26 13:31:00,69.1,38.6,30.30,NNW,338,1.1,3.4,33,0.00,,,0.00,WUHU216HW,2013-04-26 17:31:00,
2013-04-26 13:36:00,69.7,38.4,30.30,SW,225,4.7,4.7,32,0.00,,,0.00,WUHU216HW,2013-04-26 17:36:00,
2013-04-26 13:41:00,69.8,38.5,30.30,West,270,2.7,4.7,32,0.00,,,0.00,WUHU216HW,2013-04-26 17:41:00,
2013-04-26 13:46:00,69.7,38.4,30.30,SW,225,0.4,4.7,32,0.00,,,0.00,WUHU216HW,2013-04-26 17:46:00,
2013-04-26 13:51:00,69.7,38.4,30.30,SW,225,1.6,4.0,32,0.00,,,0.00,WUHU216HW,2013-04-26 17:51:00,
2013-04-26 13:56:00,70.2,37.5,30.30,West,270,5.1,5.1,30,0.00,,,0.00,WUHU216HW,2013-04-26 17:56:00,
2013-04-26 14:01:00,70.4,38.4,30.30,WSW,248,5.4,5.4,31,0.00,,,0.00,WUHU216HW,2013-04-26 18:01:00,
2013-04-26 14:06:00,70.0,38.0,30.30,NNW,338,2.9,5.4,31,0.00,,,0.00,WUHU216HW,2013-04-26 18:06:00,
2013-04-26 14:11:00,69.5,36.7,30.30,NNE,23,2.5,5.4,30,0.00,,,0.00,WUHU216HW,2013-04-26 18:11:00,
2013-04-26 14:16:00,69.1,37.2,30.30,SSW,203,3.4,5.4,31,0.00,,,0.00,WUHU216HW,2013-04-26 18:16:00,
2013-04-26 14:21:00,69.1,37.9,30.30,SW,225,1.1,5.4,32,0.00,,,0.00,WUHU216HW,2013-04-26 18:21:00,
2013-04-26 14:26:00,69.3,37.4,30.29,SSW,203,5.4,5.4,31,0.00,,,0.00,WUHU216HW,2013-04-26 18:26:00,
2013-04-26 14:31:00,69.5,37.5,30.30,West,270,0.9,6.0,31,0.00,,,0.00,WUHU216HW,2013-04-26 18:31:00,
2013-04-26 14:36:00,69.5,35.7,30.30,NNW,338,1.8,6.0,29,0.00,,,0.00,WUHU216HW,2013-04-26 18:36:00,
2013-04-26 14:41:00,69.5,37.5,30.30,South,180,3.8,4.9,31,0.00,,,0.00,WUHU216HW,2013-04-26 18:41:00,
2013-04-26 14:46:00,69.3,36.6,30.29,SW,225,2.2,4.5,30,0.00,,,0.00,WUHU216HW,2013-04-26 18:46:00,
2013-04-26 14:51:00,69.5,36.7,30.30,South,180,0.2,4.5,30,0.00,,,0.00,WUHU216HW,2013-04-26 18:51:00,
2013-04-26 14:56:00,69.5,36.7,30.30,SSW,203,1.8,4.3,30,0.00,,,0.00,WUHU216HW,2013-04-26 18:56:00,
2013-04-26 15:01:00,69.3,36.6,30.29,West,270,1.1,4.7,30,0.00,,,0.00,WUHU216HW,2013-04-26 19:01:00,
2013-04-26 15:06:00,69.5,36.7,30.29,West,270,5.4,8.5,30,0.00,,,0.00,WUHU216HW,2013-04-26 19:06:00,
2013-04-26 15:11:00,69.5,36.7,30.29,SSW,203,2.5,8.5,30,0.00,,,0.00,WUHU216HW,2013-04-26 19:11:00,
2013-04-26 15:16:00,69.5,36.7,30.29,SW,225,2.2,5.4,30,0.00,,,0.00,WUHU216HW,2013-04-26 19:16:00,
2013-04-26 15:21:00,69.5,36.7,30.29,WNW,293,1.3,4.5,30,0.00,,,0.00,WUHU216HW,2013-04-26 19:21:00,
2013-04-26 15:26:00,69.5,35.7,30.30,WNW,293,1.8,6.3,29,0.00,,,0.00,WUHU216HW,2013-04-26 19:26:00,
2013-04-26 15:31:00,69.5,35.7,30.30,WSW,248,2.2,6.3,29,0.00,,,0.00,WUHU216HW,2013-04-26 19:31:00,
2013-04-26 15:36:00,69.5,35.7,30.30,SW,225,2.5,5.1,29,0.00,,,0.00,WUHU216HW,2013-04-26 19:36:00,
2013-04-26 15:41:00,69.5,36.7,30.29,SW,225,4.7,4.7,30,0.00,,,0.00,WUHU216HW,2013-04-26 19:41:00,
2013-04-26 15:46:00,69.3,35.6,30.30,SSW,203,2.5,4.7,29,0.00,,,0.00,WUHU216HW,2013-04-26 19:46:00,
2013-04-26 15:51:00,69.1,36.5,30.29,ENE,68,0.7,4.7,30,0.00,,,0.00,WUHU216HW,2013-04-26 19:51:00,
2013-04-26 15:56:00,68.9,36.3,30.29,SSE,158,1.1,5.4,30,0.00,,,0.00,WUHU216HW,2013-04-26 19:56:00,
2013-04-26 16:01:00,68.6,35.9,30.29,ESE,113,1.6,5.4,30,0.00,,,0.00,WUHU216HW,2013-04-26 20:01:00,
2013-04-26 16:06:00,68.4,34.8,30.29,West,270,3.6,7.6,29,0.00,,,0.00,WUHU216HW,2013-04-26 20:06:00,
2013-04-26 16:11:00,68.2,35.7,30.29,WSW,248,0.9,7.6,30,0.00,,,0.00,WUHU216HW,2013-04-26 20:11:00,
2013-04-26 16:16:00,68.0,34.5,30.29,West,270,0.7,4.5,29,0.00,,,0.00,WUHU216HW,2013-04-26 20:16:00,
2013-04-26 16:21:00,68.4,34.8,30.29,WSW,248,4.0,4.5,29,0.00,,,0.00,WUHU216HW,2013-04-26 20:21:00,
2013-04-26 16:26:00,68.2,34.7,30.29,SSW,203,3.4,4.5,29,0.00,,,0.00,WUHU216HW,2013-04-26 20:26:00,
2013-04-26 16:31:00,68.2,35.7,30.29,SW,225,0.7,4.3,30,0.00,,,0.00,WUHU216HW,2013-04-26 20:31:00,
2013-04-26 16:36:00,68.4,34.8,30.30,WSW,248,1.6,4.3,29,0.00,,,0.00,WUHU216HW,2013-04-26 20:36:00,
2013-04-26 16:41:00,68.0,34.5,30.29,SW,225,2.9,4.7,29,0.00,,,0.00,WUHU216HW,2013-04-26 20:41:00,
2013-04-26 16:46:00,67.7,34.2,30.29,WSW,248,1.8,5.6,29,0.00,,,0.00,WUHU216HW,2013-04-26 20:46:00,
2013-04-26 16:51:00,67.5,35.0,30.29,South,180,3.1,5.6,30,0.00,,,0.00,WUHU216HW,2013-04-26 20:51:00,
2013-04-26 16:56:00,67.3,35.7,30.29,SSW,203,1.8,3.4,31,0.00,,,0.00,WUHU216HW,2013-04-26 20:56:00,
2013-04-26 17:01:00,67.1,36.9,30.29,SSW,203,2.7,4.5,33,0.00,,,0.00,WUHU216HW,2013-04-26 21:01:00,
2013-04-26 17:06:00,66.6,36.5,30.29,SSW,203,1.8,4.5,33,0.00,,,0.00,WUHU216HW,2013-04-26 21:06:00,
2013-04-26 17:11:00,66.6,36.5,30.30,SSE,158,2.5,4.7,33,0.00,,,0.00,WUHU216HW,2013-04-26 21:11:00,
2013-04-26 17:16:00,66.1,36.7,30.30,South,180,1.1,4.7,34,0.00,,,0.00,WUHU216HW,2013-04-26 21:16:00,
2013-04-26 17:21:00,65.9,36.5,30.30,SW,225,2.7,3.8,34,0.00,,,0.00,WUHU216HW,2013-04-26 21:21:00,
2013-04-26 17:26:00,65.7,36.5,30.30,SW,225,1.3,3.4,34,0.00,,,0.00,WUHU216HW,2013-04-26 21:26:00,
2013-04-26 17:31:00,65.5,37.0,30.30,SSW,203,2.2,3.4,35,0.00,,,0.00,WUHU216HW,2013-04-26 21:31:00,
2013-04-26 17:36:00,65.2,37.4,30.30,SE,135,1.8,3.4,36,0.00,,,0.00,WUHU216HW,2013-04-26 21:36:00,
2013-04-26 17:41:00,64.8,37.1,30.30,South,180,1.1,3.4,36,0.00,,,0.00,WUHU216HW,2013-04-26 21:41:00,
2013-04-26 17:46:00,64.8,37.1,30.30,SSE,158,1.8,3.4,36,0.00,,,0.00,WUHU216HW,2013-04-26 21:46:00,
2013-04-26 17:51:00,64.6,36.9,30.30,SW,225,2.0,4.0,36,0.00,,,0.00,WUHU216HW,2013-04-26 21:51:00,
2013-04-26 17:56:00,64.4,36.7,30.30,SE,135,1.1,4.0,36,0.00,,,0.00,WUHU216HW,2013-04-26 21:56:00,
2013-04-26 18:01:00,64.3,36.5,30.30,ESE,113,2.7,3.4,36,0.00,,,0.00,WUHU216HW,2013-04-26 22:01:00,
2013-04-26 18:06:00,64.3,37.3,30.30,SSW,203,1.8,3.4,37,0.00,,,0.00,WUHU216HW,2013-04-26 22:06:00,
2013-04-26 18:11:00,63.9,37.0,30.30,South,180,1.1,2.7,37,0.00,,,0.00,WUHU216HW,2013-04-26 22:11:00,
2013-04-26 18:16:00,63.7,36.8,30.31,SSW,203,1.3,3.4,37,0.00,,,0.00,WUHU216HW,2013-04-26 22:16:00,
2013-04-26 18:21:00,63.4,36.5,30.31,SE,135,1.3,3.4,37,0.00,,,0.00,WUHU216HW,2013-04-26 22:21:00,
2013-04-26 18:26:00,63.2,37.0,30.31,West,270,1.3,2.2,38,0.00,,,0.00,WUHU216HW,2013-04-26 22:26:00,
2013-04-26 18:31:00,63.0,37.6,30.31,SSW,203,1.3,2.2,39,0.00,,,0.00,WUHU216HW,2013-04-26 22:31:00,
2013-04-26 18:36:00,62.6,37.3,30.31,NNW,338,0.2,1.8,39,0.00,,,0.00,WUHU216HW,2013-04-26 22:36:00,
2013-04-26 18:41:00,62.3,36.9,30.31,WNW,293,1.8,2.2,39,0.00,,,0.00,WUHU216HW,2013-04-26 22:41:00,
2013-04-26 18:46:00,62.1,36.8,30.31,South,180,0.9,3.1,39,0.00,,,0.00,WUHU216HW,2013-04-26 22:46:00,
2013-04-26 18:51:00,61.7,37.2,30.31,SW,225,2.5,3.4,40,0.00,,,0.00,WUHU216HW,2013-04-26 22:51:00,
2013-04-26 18:56:00,61.4,36.8,30.31,West,270,2.0,3.6,40,0.00,,,0.00,WUHU216HW,2013-04-26 22:56:00,
2013-04-26 19:01:00,61.0,37.7,30.31,SSW,203,2.2,3.6,42,0.00,,,0.00,WUHU216HW,2013-04-26 23:01:00,
2013-04-26 19:06:00,60.8,37.5,30.31,South,180,1.8,2.5,42,0.00,,,0.00,WUHU216HW,2013-04-26 23:06:00,
2013-04-26 19:11:00,60.5,37.2,30.31,South,180,1.1,2.5,42,0.00,,,0.00,WUHU216HW,2013-04-26 23:11:00,
2013-04-26 19:16:00,60.3,37.6,30.31,SSE,158,1.1,2.5,43,0.00,,,0.00,WUHU216HW,2013-04-26 23:16:00,
2013-04-26 19:21:00,59.9,37.9,30.31,SW,225,0.9,2.2,44,0.00,,,0.00,WUHU216HW,2013-04-26 23:21:00,
2013-04-26 19:26:00,59.8,37.7,30.31,SW,225,1.3,2.2,44,0.00,,,0.00,WUHU216HW,2013-04-26 23:26:00,
2013-04-26 19:31:00,59.4,38.0,30.31,South,180,0.4,1.8,45,0.00,,,0.00,WUHU216HW,2013-04-26 23:31:00,
2013-04-26 19:36:00,59.4,38.0,30.32,SSW,203,0.0,1.8,45,0.00,,,0.00,WUHU216HW,2013-04-26 23:36:00,
2013-04-26 19:41:00,59.2,37.8,30.32,SSW,203,0.4,1.3,45,0.00,,,0.00,WUHU216HW,2013-04-26 23:41:00,
2013-04-26 19:46:00,59.0,38.2,30.32,South,180,0.0,1.3,46,0.00,,,0.00,WUHU216HW,2013-04-26 23:46:00,
2013-04-26 19:51:00,58.7,37.9,30.32,SSW,203,0.9,1.8,46,0.00,,,0.00,WUHU216HW,2013-04-26 23:51:00,
2013-04-26 19:52:00,58.5,37.7,30.32,SSE,158,0.0,1.8,46,0.00,,,0.00,WUHU216HW,2013-04-26 23:52:00,
2013-04-26 19:53:00,58.5,37.7,30.32,North,0,0.4,1.8,46,0.00,,,0.00,WUHU216HW,2013-04-26 23:53:00,
2013-04-26 19:55:00,58.5,37.7,30.32,NNE,23,1.3,1.8,46,0.00,,,0.00,WUHU216HW,2013-04-26 23:55:00,
2013-04-26 20:05:00,58.1,37.4,30.32,SSE,158,0.7,1.3,46,0.00,,,0.00,WUHU216HW,2013-04-27 00:05:00,
2013-04-26 20:10:00,58.0,37.3,30.32,SW,225,0.9,2.2,46,0.00,,,0.00,WUHU216HW,2013-04-27 00:10:00,
2013-04-26 20:15:00,58.0,37.3,30.32,SE,135,0.4,2.2,46,0.00,,,0.00,WUHU216HW,2013-04-27 00:15:00,
2013-04-26 20:20:00,57.8,37.1,30.32,SSW,203,0.0,1.1,46,0.00,,,0.00,WUHU216HW,2013-04-27 00:20:00,
2013-04-26 20:25:00,57.6,37.4,30.33,SSW,203,0.9,0.9,47,0.00,,,0.00,WUHU216HW,2013-04-27 00:25:00,
2013-04-26 20:30:00,57.4,37.4,30.33,SSE,158,0.2,0.9,47,0.00,,,0.00,WUHU216HW,2013-04-27 00:30:00,
2013-04-26 20:35:00,57.2,37.7,30.33,WSW,248,0.0,0.9,48,0.00,,,0.00,WUHU216HW,2013-04-27 00:35:00,
2013-04-26 20:40:00,57.1,37.5,30.33,WSW,248,0.0,0.4,48,0.00,,,0.00,WUHU216HW,2013-04-27 00:40:00,
2013-04-26 20:45:00,56.9,38.0,30.33,WSW,248,0.0,0.2,49,0.00,,,0.00,WUHU216HW,2013-04-27 00:45:00,
2013-04-26 20:50:00,56.7,37.8,30.33,SE,135,0.0,1.1,49,0.00,,,0.00,WUHU216HW,2013-04-27 00:50:00,
2013-04-26 20:55:00,56.5,37.6,30.34,SE,135,0.0,1.1,49,0.00,,,0.00,WUHU216HW,2013-04-27 00:55:00,
2013-04-26 21:00:00,56.3,38.0,30.34,ENE,68,0.2,0.4,50,0.00,,,0.00,WUHU216HW,2013-04-27 01:00:00,
2013-04-26 21:05:00,56.3,38.0,30.34,SW,225,0.0,0.7,50,0.00,,,0.00,WUHU216HW,2013-04-27 01:05:00,
2013-04-26 21:10:00,56.2,37.8,30.34,South,180,0.0,0.7,50,0.00,,,0.00,WUHU216HW,2013-04-27 01:10:00,
2013-04-26 21:15:00,56.2,37.8,30.34,WSW,248,0.0,1.1,50,0.00,,,0.00,WUHU216HW,2013-04-27 01:15:00,
2013-04-26 21:20:00,56.2,37.8,30.34,WSW,248,0.0,1.1,50,0.00,,,0.00,WUHU216HW,2013-04-27 01:20:00,
2013-04-26 21:25:00,56.0,37.6,30.35,SSW,203,0.0,1.1,50,0.00,,,0.00,WUHU216HW,2013-04-27 01:25:00,
2013-04-26 21:30:00,55.6,37.3,30.35,SW,225,0.0,1.1,50,0.00,,,0.00,WUHU216HW,2013-04-27 01:30:00,
2013-04-26 21:35:00,55.4,37.1,30.35,SW,225,0.0,1.1,50,0.00,,,0.00,WUHU216HW,2013-04-27 01:35:00,
2013-04-26 21:40:00,55.4,37.1,30.35,SW,225,0.0,1.1,50,0.00,,,0.00,WUHU216HW,2013-04-27 01:40:00,
2013-04-26 21:45:00,55.6,37.3,30.35,SSW,203,0.2,0.7,50,0.00,,,0.00,WUHU216HW,2013-04-27 01:45:00,
2013-04-26 21:50:00,55.6,37.3,30.35,SSW,203,0.0,0.7,50,0.00,,,0.00,WUHU216HW,2013-04-27 01:50:00,
2013-04-26 21:55:00,55.4,37.1,30.35,WSW,248,0.2,1.1,50,0.00,,,0.00,WUHU216HW,2013-04-27 01:55:00,
2013-04-26 22:00:00,55.3,36.9,30.35,South,180,0.0,1.1,50,0.00,,,0.00,WUHU216HW,2013-04-27 02:00:00,
2013-04-26 22:05:00,55.1,36.7,30.35,South,180,0.0,0.4,50,0.00,,,0.00,WUHU216HW,2013-04-27 02:05:00,
2013-04-26 22:10:00,55.1,36.7,30.34,South,180,0.4,0.4,50,0.00,,,0.00,WUHU216HW,2013-04-27 02:10:00,
2013-04-26 22:15:00,54.9,36.6,30.34,SSE,158,0.0,0.4,50,0.00,,,0.00,WUHU216HW,2013-04-27 02:15:00,
2013-04-26 22:20:00,54.9,36.6,30.34,SSW,203,0.0,0.4,50,0.00,,,0.00,WUHU216HW,2013-04-27 02:20:00,
2013-04-26 22:25:00,54.7,36.9,30.34,SSW,203,0.0,0.0,51,0.00,,,0.00,WUHU216HW,2013-04-27 02:25:00,
2013-04-26 22:30:00,54.5,36.7,30.35,SSW,203,0.0,0.0,51,0.00,,,0.00,WUHU216HW,2013-04-27 02:30:00,
2013-04-26 22:35:00,54.4,36.5,30.34,WSW,248,0.0,1.8,51,0.00,,,0.00,WUHU216HW,2013-04-27 02:35:00,
2013-04-26 22:40:00,54.4,37.1,30.34,SSW,203,0.2,1.8,52,0.00,,,0.00,WUHU216HW,2013-04-27 02:40:00,
2013-04-26 22:45:00,54.4,37.1,30.34,SSW,203,0.0,1.1,52,0.00,,,0.00,WUHU216HW,2013-04-27 02:45:00,
2013-04-26 22:50:00,54.2,36.9,30.34,SSW,203,0.0,0.7,52,0.00,,,0.00,WUHU216HW,2013-04-27 02:50:00,
2013-04-26 22:55:00,54.0,37.2,30.34,SSW,203,0.0,0.0,53,0.00,,,0.00,WUHU216HW,2013-04-27 02:55:00,
2013-04-26 23:00:00,54.0,37.2,30.34,SSW,203,0.0,0.4,53,0.00,,,0.00,WUHU216HW,2013-04-27 03:00:00,
2013-04-26 23:05:00,54.0,37.2,30.34,ESE,113,0.0,0.4,53,0.00,,,0.00,WUHU216HW,2013-04-27 03:05:00,
2013-04-26 23:10:00,53.8,37.5,30.35,ESE,113,0.0,0.2,54,0.00,,,0.00,WUHU216HW,2013-04-27 03:10:00,
2013-04-26 23:15:00,53.6,37.8,30.35,ESE,113,0.0,0.0,55,0.00,,,0.00,WUHU216HW,2013-04-27 03:15:00,
2013-04-26 23:20:00,53.6,37.8,30.35,ESE,113,0.0,0.0,55,0.00,,,0.00,WUHU216HW,2013-04-27 03:20:00,
2013-04-26 23:25:00,53.6,37.8,30.35,ESE,113,0.0,0.0,55,0.00,,,0.00,WUHU216HW,2013-04-27 03:25:00,
2013-04-26 23:30:00,53.5,38.1,30.35,ESE,113,0.0,0.0,56,0.00,,,0.00,WUHU216HW,2013-04-27 03:30:00,
2013-04-26 23:35:00,53.3,37.9,30.35,East,90,0.0,0.0,56,0.00,,,0.00,WUHU216HW,2013-04-27 03:35:00,
2013-04-26 23:40:00,53.3,37.9,30.36,East,90,0.0,0.0,56,0.00,,,0.00,WUHU216HW,2013-04-27 03:40:00,
2013-04-26 23:45:00,53.1,37.7,30.36,East,90,0.0,0.0,56,0.00,,,0.00,WUHU216HW,2013-04-27 03:45:00,
2013-04-26 23:50:00,52.9,38.1,30.36,East,90,0.0,0.0,57,0.00,,,0.00,WUHU216HW,2013-04-27 03:50:00,
2013-04-26 23:55:00,52.9,38.1,30.36,East,90,0.0,0.0,57,0.00,,,0.00,WUHU216HW,2013-04-27 03:55:00,